STARLINK-11245, 60925

Orbit data source: Space-Track

STARLINK-11245, 60925 is a payload satellite owned by SpaceX/Seattle (US) in LEO that was launched on Sat, 31 Aug 2024 UTC via an FALCON 9 launch vehicle from the Air Force Western Test Range (AFWTR). Payloads include a variety of satellites, spacecraft, and rockets equipped with specific instruments for various scientific and technological missions. These include communications satellites like Starlink; space stations such as the ISS; scientific satellites like the Hubble; Earth observation satellites from companies like Planet Labs, Umbra, and HawkEye 360; GPS; miniature CubeSats for education and research; and military/defense satellites.

Loading next visibility...
STARLINK-11245 details
Identifier
60925, 2024-155B
Orbit
LEO
Last TLE update15 hours ago
Origin
Flag of USSpaceX/Seattle (US)
ManufacturerSpaceX/Seattle
MissionOperational spacecraft
Bus & MotorSTARLINK V2M, Unknown motor
Mass730 kg wet, ~700 kg dry
Launch date (UTC)
2024-08-31 (5 months ago)
Launch vehicle
FALCON 9
Launch site
Air Force Western Test Range (AFWTR)
Object type
Payload
Rocket body
Debris
Shape & HBRUnknown
Radar Cross SectionLarge (>1 m²)

Expand to show TLE details & history

TLE from 15 hours ago
0 STARLINK-11245
1 60925U 24155B   25015.02461441 -.00001669  00000-0 -89217-5 0  9990
2 60925  53.1594 245.3167 0001116  78.6105 281.5038 15.69707536 22522
Epoch: 2025-01-15T00:35Z
Definitive object data (Epoch: 2025-01-15T00:35:26.685Z)
Latitude-0.00002°
Longitude121.73261°
Altitude360.499 km
Speed7.694 km/s
True Right ascension16h 21m 16s
True Declination0° 00' 00"
Sunlit
Object was in daylight at TLE epoch
Visualization TLE readout
Latitude-11.10444°
Longitude-52.85378°
Altitude363.047 km
Speed7.692 km/s
Apparent Right ascension04h 20m 43s
Apparent Declination-25° 06' 22"
Sunlit
Object is in full shadow
Visualization observer readout
Local Sidereal Time15:50:43
Azimuth334.747° NNW
Elevation-73.911°
Doppler factor1
Orbital elements
Apogee altitude360.747 km
Perigee altitude359.243 km
Semi-major axis6,738.132 km
Eccentricity0.0001116
Inclination53.1594°
RAAN245.3167°
Arg. of periapsis78.6105°
True anomaly281.49127°
Mean anomaly281.5038°
Eccentric anomaly281.49753°
Mean motion3.92404 °/min
BSTAR-0.0000089217
Orbital period91.74 mins
Loading maneuver chart data...
Loading historical data...
Loading historical data...
Loading historical data...
Loading historical data...
Loading historical data...
Loading historical data...
Loading historical data...

STARLINK-11245 Visibility forecast

Observer location: undefined°, undefined

Span
Click to sort rows by Start time (UTC) header in descending order
Start Az.
Max El. time (UTC)
Max El. Az.
Max El.
End time (UTC)
End Az.
5 mins2025-01-15 17:33:54.504Z208.956° SW2025-01-15 17:36:54.504Z115.974° SE34.117°2025-01-15 17:38:54.504Z65.068° ENE
|